[[{"header":{"parameterUnit":"m.s-1","parameterCategory":2,"la1":30.2992,"la2":30.254,"lo1":-89.0895,"lo2":-89.0443,"dy":0.0025,"dx":0.0025,"nx":19,"ny":19,"refTime":"2026-04-06T21:00:00:Z","depth":"0","parameterNumber":2,"parameterNumberName":"U-component_of_CURRENTS"},"data":[0,0,0,-0.0598,-0.0599,-0.0636,-0.0636,-0.0593,-0.0593,0,0,0,0,0,0,0,0,0,0,0,-0.058,-0.058,-0.0597,-0.0599,-0.0636,-0.0636,-0.0593,-0.0593,0,0,0,0,0,0,0,0,0,0,0,-0.0579,-0.058,-0.0581,-0.0599,-0.0636,-0.0636,-0.0593,-0.0583,0,0,0,0,0,0,0,0,0,0,-0.0557,-0.055,-0.058,-0.0581,-0.06,-0.0636,-0.0636,-0.0584,-0.0584,-0.0556,0,-0.0576,0,-0.0592,-0.059,-0.0589,0,0,0,-0.058,-0.055,-0.0575,-0.0581,-0.06,-0.0636,-0.0614,-0.0584,-0.0585,-0.0556,-0.0576,-0.0575,-0.0591,-0.0589,-0.0589,-0.0568,-0.0568,0,0,-0.0578,-0.0567,-0.0575,-0.0575,-0.0626,-0.0613,-0.0616,-0.0585,-0.0582,-0.0575,-0.0574,-0.0591,-0.0589,-0.0589,-0.0568,-0.0568,0,0,0,-0.0585,-0.0565,-0.0591,-0.0576,-0.0595,-0.0615,-0.0618,-0.0583,-0.0596,-0.0574,-0.059,-0.0589,-0.0588,-0.0568,-0.0568,-0.06,0,0,0,-0.0583,-0.0571,-0.0591,-0.0581,-0.0597,-0.06,-0.0615,-0.0598,-0.0596,-0.059,-0.0589,-0.0588,-0.0568,-0.0568,-0.0598,-0.0651,0,0,0,-0.0575,-0.057,-0.0583,-0.0581,-0.0608,-0.0602,-0.0612,-0.0598,-0.0606,-0.0589,-0.0587,-0.0568,-0.0568,-0.0597,-0.0648,-0.0809,0,0,0,-0.0549,-0.058,-0.0582,-0.0614,-0.0608,-0.0629,-0.0613,-0.062,-0.0611,-0.0588,-0.0568,-0.0568,-0.0597,-0.0646,-0.0804,-0.1079,-0.112,0,0,-0.0577,-0.0583,-0.0602,-0.0606,-0.064,-0.0621,-0.0632,-0.0618,-0.0602,-0.0567,-0.0568,-0.0599,-0.0648,-0.0808,-0.1096,-0.1139,0,0,0,-0.0603,-0.0621,-0.0629,-0.065,-0.0656,-0.0657,-0.0639,-0.0629,-0.0617,-0.0603,-0.0596,-0.0627,-0.0728,-0.0883,-0.0915,-0.1049,-0.057,-0.057,-0.057,-0.0643,-0.0648,-0.067,-0.0676,-0.0681,-0.0676,-0.0677,-0.0658,-0.0626,-0.0631,-0.0649,-0.0789,-0.0949,-0.0978,-0.1108,-0.0624,-0.0624,-0.0625,-0.0625,-0.0691,-0.0699,-0.0696,-0.0715,-0.0708,-0.0707,-0.0705,-0.0698,-0.0757,-0.0676,-0.0773,-0.0902,-0.1017,-0.1143,-0.0627,-0.0626,-0.0626,-0.0626,-0.0626,-0.0716,-0.0711,-0.0721,-0.0732,-0.0748,-0.0744,-0.0855,-0.0835,-0.0829,-0.0885,-0.1158,-0.1161,-0.1287,-0.0976,-0.0977,-0.0978,-0.0979,-0.0979,-0.098,-0.0722,-0.0729,-0.0747,-0.0752,-0.079,-0.0863,-0.097,-0.1089,-0.1266,-0.1263,-0.1266,-0.1375,-0.0899,-0.0902,-0.0994,-0.0991,-0.099,-0.0988,-0.0987,-0.0727,-0.0724,-0.0775,-0.0813,-0.0935,-0.1108,-0.1231,-0.1602,-0.1715,-0.1866,-0.1882,-0.1489,-0.154,-0.1515,-0.1535,-0.1786,-0.1786,-0.1786,-0.1786,-0.0719,-0.072,-0.0817,-0.0932,-0.1092,-0.1239,-0.1683,-0.1993,-0.2251,-0.235,-0.2278,-0.2232,-0.2193,-0.2275,-0.2233,-0.2263,-0.2693,-0.2694,-0.2695,-0.0706,-0.0749,-0.0831,-0.0959,-0.1171,-0.1431,-0.1853,-0.2338,-0.2684,-0.273,-0.2412,-0.2374,-0.2286,-0.2215,-0.2315,-0.2245,-0.2282,0,0]},{"header":{"parameterUnit":"m.s-1","parameterCategory":2,"la1":30.2992,"la2":30.254,"lo1":-89.0895,"lo2":-89.0443,"dy":0.0025,"dx":0.0025,"nx":19,"ny":19,"refTime":"2026-04-06T21:00:00:Z","depth":"0","parameterNumber":3,"parameterNumberName":"V-component_of_CURRENTS"},"data":[0,0,0,-0.0105,-0.0105,-0.0061,-0.0061,0.0009,0.0009,0,0,0,0,0,0,0,0,0,0,0,-0.0117,-0.0117,-0.0106,-0.0105,-0.0061,-0.0061,0.0009,0.0009,0,0,0,0,0,0,0,0,0,0,0,-0.0117,-0.0117,-0.0117,-0.0105,-0.0061,-0.0061,0.0008,-0.0026,0,0,0,0,0,0,0,0,0,0,-0.0069,-0.0089,-0.0117,-0.0117,-0.0104,-0.0061,-0.0061,-0.0028,-0.0024,-0.001,0,-0.0005,0,-0.0001,0.0014,0.0014,0,0,0,-0.0096,-0.0092,-0.0078,-0.0117,-0.0104,-0.0062,-0.0079,-0.0025,-0.0021,-0.0004,-0.0004,-0.0002,0.0,0.0014,0.0014,0.0083,0.0083,0,0,-0.0099,-0.0109,-0.0082,-0.0076,-0.0096,-0.008,-0.0077,-0.0023,-0.0021,-0.0004,-0.0,0.0001,0.0014,0.0015,0.0082,0.0083,0,0,0,-0.0111,-0.0111,-0.0099,-0.0079,-0.0074,-0.0079,-0.0076,-0.0023,-0.0018,0.0,0.0002,0.0015,0.0015,0.0082,0.0083,0.0092,0,0,0,-0.0112,-0.0119,-0.01,-0.0106,-0.0076,-0.0051,-0.0077,-0.0022,-0.0016,0.0002,0.0015,0.0016,0.0082,0.0082,0.0092,0.0086,0,0,0,-0.0119,-0.012,-0.0115,-0.0107,-0.0092,-0.0052,-0.0044,-0.002,-0.0015,0.0014,0.0016,0.0082,0.0082,0.0091,0.0085,0.0089,0,0,0,-0.013,-0.0135,-0.0116,-0.0113,-0.0092,-0.0058,-0.0044,-0.0016,0.0008,0.0015,0.0082,0.0083,0.009,0.0084,0.0089,0.0056,0.0055,0,0,-0.0145,-0.0137,-0.0134,-0.0116,-0.0093,-0.0064,-0.0025,0.0009,0.0024,0.0066,0.0067,0.0092,0.0085,0.0089,0.0094,0.0092,0,0,0,-0.0144,-0.0144,-0.0132,-0.0113,-0.0079,-0.0034,0.0,0.0025,0.0069,0.004,0.0103,0.0098,0.01,0.0079,0.0079,0.0315,0.0086,0.0086,0.0085,-0.0198,-0.0165,-0.015,-0.0105,-0.0072,-0.0009,0.0032,0.0074,0.0082,0.0105,0.0114,0.0134,0.0114,0.0112,0.0358,0.0129,0.0129,0.0129,0.0129,-0.0226,-0.0213,-0.0156,-0.013,-0.0063,-0.0021,0.0066,0.0088,0.0139,0.0138,0.014,0.0101,0.0112,0.0374,0.013,0.013,0.013,0.013,0.013,-0.0259,-0.0244,-0.022,-0.0168,-0.0108,-0.0034,0.0001,0.0078,0.0135,0.0155,0.0121,0.0121,0.0342,0.0149,0.0149,0.0149,0.0149,0.0149,0.0149,-0.0306,-0.0275,-0.0273,-0.0209,-0.0192,-0.0144,-0.0042,-0.0006,0.0077,0.0124,0.0124,0.0386,0.014,0.0129,0.0149,0.0149,0.0149,0.0149,0.0149,-0.0343,-0.0335,-0.0351,-0.0345,-0.0323,-0.0382,-0.0239,-0.0157,-0.0057,-0.0028,0.039,0.0113,0.0103,0.0104,0.0092,0.0101,0.0101,0.0101,0.0101,-0.0382,-0.0373,-0.0448,-0.049,-0.0513,-0.0507,-0.0597,-0.0394,0.0087,0.0371,0.0509,0.0544,0.0535,0.0554,0.0545,0.0544,0.0668,0.0669,0.067,-0.0413,-0.0439,-0.0527,-0.0579,-0.0626,-0.0703,-0.0853,-0.0609,0.0263,0.0723,0.0856,0.0832,0.0913,0.088,0.0928,0.0896,0.0899,0,0]}],[{"header":{"parameterUnit":"m.s-1","parameterCategory":2,"la1":30.2992,"la2":30.254,"lo1":-89.0895,"lo2":-89.0443,"dy":0.0025,"dx":0.0025,"nx":19,"ny":19,"refTime":"2026-04-06T21:00:00:Z","depth":"2","parameterNumber":2,"parameterNumberName":"U-component_of_CURRENTS"},"data":[0,0,0,-0.0529,-0.053,-0.0569,-0.0569,-0.0525,-0.0525,0,0,0,0,0,0,0,0,0,0,0,-0.051,-0.051,-0.0529,-0.053,-0.0569,-0.0569,-0.0525,-0.0525,0,0,0,0,0,0,0,0,0,0,0,-0.051,-0.051,-0.0511,-0.0531,-0.0569,-0.0569,-0.0526,-0.0515,0,0,0,0,0,0,0,0,0,0,-0.0487,-0.0481,-0.051,-0.0511,-0.0531,-0.0569,-0.0569,-0.0515,-0.0515,-0.0487,0,-0.0507,0,-0.0524,-0.0522,-0.0521,0,0,0,-0.0511,-0.0481,-0.0505,-0.0511,-0.0532,-0.0569,-0.0546,-0.0516,-0.0516,-0.0487,-0.0507,-0.0506,-0.0523,-0.0521,-0.0521,-0.0499,-0.0499,0,0,-0.0509,-0.0498,-0.0505,-0.0506,-0.0558,-0.0545,-0.0548,-0.0517,-0.0514,-0.0507,-0.0505,-0.0523,-0.0521,-0.0521,-0.0499,-0.0499,0,0,0,-0.0516,-0.0497,-0.0522,-0.0507,-0.0527,-0.0547,-0.055,-0.0515,-0.0528,-0.0505,-0.0522,-0.0521,-0.052,-0.0499,-0.0499,-0.0531,0,0,0,-0.0513,-0.0502,-0.0521,-0.0512,-0.0528,-0.0533,-0.0548,-0.053,-0.0528,-0.0522,-0.0521,-0.052,-0.0499,-0.0499,-0.053,-0.0583,0,0,0,-0.0505,-0.0501,-0.0514,-0.0512,-0.0541,-0.0534,-0.0545,-0.053,-0.0538,-0.0521,-0.0519,-0.0499,-0.0499,-0.0529,-0.058,-0.0739,0,0,0,-0.048,-0.0512,-0.0514,-0.0546,-0.0541,-0.0561,-0.0545,-0.0553,-0.0543,-0.052,-0.0499,-0.0499,-0.0529,-0.0578,-0.0734,-0.0983,-0.1023,0,0,-0.0508,-0.0514,-0.0533,-0.0537,-0.0572,-0.0553,-0.0563,-0.055,-0.0535,-0.0498,-0.0499,-0.0531,-0.058,-0.0738,-0.1,-0.104,0,0,0,-0.0534,-0.0553,-0.0561,-0.0582,-0.0588,-0.0588,-0.0571,-0.0561,-0.0549,-0.0535,-0.0528,-0.0559,-0.0658,-0.0797,-0.0828,-0.05,-0.05,-0.05,-0.05,-0.0577,-0.0581,-0.0603,-0.0608,-0.0613,-0.0608,-0.0608,-0.0589,-0.0557,-0.0563,-0.0581,-0.0719,-0.0863,-0.0891,-0.0556,-0.0556,-0.0556,-0.0556,-0.0556,-0.0625,-0.0633,-0.0629,-0.0648,-0.064,-0.064,-0.0636,-0.0629,-0.0688,-0.0608,-0.0703,-0.0818,-0.0928,-0.0559,-0.0558,-0.0558,-0.0558,-0.0557,-0.0557,-0.0651,-0.0647,-0.0656,-0.0667,-0.0683,-0.0679,-0.0786,-0.0767,-0.076,-0.0816,-0.1071,-0.1073,-0.0809,-0.0906,-0.0907,-0.0908,-0.0909,-0.0909,-0.091,-0.0659,-0.0666,-0.0684,-0.0688,-0.0726,-0.0798,-0.0903,-0.1019,-0.1184,-0.1174,-0.1177,-0.0841,-0.0829,-0.0832,-0.0924,-0.0921,-0.092,-0.0918,-0.0917,-0.0665,-0.0662,-0.0713,-0.075,-0.0869,-0.1001,-0.115,-0.1507,-0.1623,-0.1765,-0.1403,-0.1387,-0.1435,-0.1411,-0.143,-0.1671,-0.1671,-0.1671,-0.1671,-0.0658,-0.0658,-0.0754,-0.0867,-0.1023,-0.1119,-0.1472,-0.1654,-0.1775,-0.1716,-0.1711,-0.1616,-0.159,-0.1636,-0.1606,-0.1624,-0.1916,-0.1915,-0.1915,-0.0644,-0.0687,-0.0768,-0.0894,-0.11,-0.127,-0.1506,-0.1632,-0.1753,-0.19,-0.1501,-0.1737,-0.1584,-0.1546,-0.1601,-0.156,-0.1582,0,0]},{"header":{"parameterUnit":"m.s-1","parameterCategory":2,"la1":30.2992,"la2":30.254,"lo1":-89.0895,"lo2":-89.0443,"dy":0.0025,"dx":0.0025,"nx":19,"ny":19,"refTime":"2026-04-06T21:00:00:Z","depth":"2","parameterNumber":3,"parameterNumberName":"V-component_of_CURRENTS"},"data":[0,0,0,-0.0097,-0.0096,-0.0052,-0.0051,0.002,0.0021,0,0,0,0,0,0,0,0,0,0,0,-0.0109,-0.0108,-0.0097,-0.0096,-0.0052,-0.0051,0.002,0.0021,0,0,0,0,0,0,0,0,0,0,0,-0.0109,-0.0108,-0.0108,-0.0096,-0.0052,-0.0051,0.002,-0.0015,0,0,0,0,0,0,0,0,0,0,-0.0059,-0.008,-0.0108,-0.0108,-0.0096,-0.0052,-0.0051,-0.0017,-0.0013,0.0002,0,0.0006,0,0.001,0.0025,0.0025,0,0,0,-0.0087,-0.0083,-0.0069,-0.0108,-0.0095,-0.0052,-0.0069,-0.0015,-0.001,0.0007,0.0007,0.0009,0.0011,0.0025,0.0026,0.0095,0.0095,0,0,-0.009,-0.0101,-0.0072,-0.0066,-0.0087,-0.0071,-0.0068,-0.0012,-0.001,0.0007,0.0011,0.0013,0.0026,0.0026,0.0095,0.0095,0,0,0,-0.0102,-0.0103,-0.009,-0.0069,-0.0065,-0.007,-0.0066,-0.0012,-0.0007,0.0012,0.0013,0.0026,0.0027,0.0094,0.0095,0.0104,0,0,0,-0.0104,-0.0111,-0.0091,-0.0097,-0.0066,-0.0042,-0.0068,-0.0011,-0.0005,0.0013,0.0026,0.0028,0.0094,0.0095,0.0103,0.0095,0,0,0,-0.011,-0.0111,-0.0107,-0.0098,-0.0083,-0.0042,-0.0034,-0.001,-0.0004,0.0025,0.0028,0.0094,0.0095,0.0102,0.0095,0.0097,0,0,0,-0.0122,-0.0126,-0.0107,-0.0105,-0.0083,-0.0049,-0.0034,-0.0005,0.0019,0.0027,0.0094,0.0095,0.0102,0.0094,0.0097,0.0057,0.0056,0,0,-0.0136,-0.0128,-0.0125,-0.0107,-0.0084,-0.0054,-0.0015,0.002,0.0035,0.0078,0.0079,0.0103,0.0095,0.0097,0.0094,0.0092,0,0,0,-0.0135,-0.0135,-0.0124,-0.0104,-0.0069,-0.0024,0.0011,0.0035,0.008,0.0051,0.0114,0.0108,0.0109,0.0085,0.0083,0.0098,0.0098,0.0098,0.0098,-0.019,-0.0157,-0.0142,-0.0096,-0.0062,0.0001,0.0041,0.0084,0.0093,0.0116,0.0124,0.0142,0.0117,0.0115,0.014,0.014,0.014,0.014,0.014,-0.0218,-0.0205,-0.0148,-0.0122,-0.0054,-0.0012,0.0074,0.0097,0.0146,0.0147,0.0148,0.0106,0.0114,0.0141,0.0141,0.0141,0.014,0.014,0.014,-0.0252,-0.0237,-0.0212,-0.016,-0.0101,-0.0027,0.0006,0.0084,0.014,0.0159,0.0121,0.012,0.0134,0.0153,0.0153,0.0153,0.0153,0.0153,0.0153,-0.0299,-0.0268,-0.0267,-0.0202,-0.0185,-0.0139,-0.0038,-0.0003,0.0076,0.0121,0.0121,0.0146,0.0146,0.0135,0.0153,0.0153,0.0153,0.0153,0.0153,-0.0337,-0.0329,-0.0345,-0.034,-0.0319,-0.0375,-0.0238,-0.016,-0.0063,-0.0037,0.0105,0.0106,0.0095,0.0096,0.0084,0.0088,0.0088,0.0088,0.0088,-0.0376,-0.0367,-0.0443,-0.0486,-0.0509,-0.0499,-0.0592,-0.0436,-0.0181,-0.0033,-0.0028,-0.0043,-0.0037,-0.0056,-0.0052,-0.0067,-0.0103,-0.0103,-0.0104,-0.0407,-0.0433,-0.0522,-0.0575,-0.0623,-0.0691,-0.0842,-0.0702,-0.0276,-0.0113,-0.0081,0.0079,0.0072,0.0075,0.0058,0.006,0.004,0,0]}],[{"header":{"parameterUnit":"m.s-1","parameterCategory":2,"la1":30.2992,"la2":30.254,"lo1":-89.0895,"lo2":-89.0443,"dy":0.0025,"dx":0.0025,"nx":19,"ny":19,"refTime":"2026-04-06T21:00:00:Z","depth":"4","parameterNumber":2,"parameterNumberName":"U-component_of_CURRENTS"},"data":[0,0,0,0.0181,0.0179,0.0131,0.0131,0.0148,0.0148,0,0,0,0,0,0,0,0,0,0,0,0.0178,0.0177,0.0181,0.0179,0.0131,0.0131,0.0148,0.0148,0,0,0,0,0,0,0,0,0,0,0,0.0179,0.0177,0.0175,0.0179,0.0131,0.0131,0.0148,0.0169,0,0,0,0,0,0,0,0,0,0,0.0208,0.02,0.0177,0.0175,0.0178,0.0131,0.0131,0.017,0.0168,0.0186,0,0.0144,0,0.0148,0.0149,0.0149,0,0,0,0.0198,0.0202,0.0174,0.0175,0.0178,0.0131,0.0158,0.0168,0.0166,0.0184,0.0144,0.0145,0.0148,0.015,0.015,0.0117,0.0116,0,0,0.02,0.0195,0.0175,0.0171,0.0122,0.016,0.0156,0.0166,0.0157,0.0144,0.0145,0.0148,0.015,0.015,0.0117,0.0117,0,0,0,0.0195,0.0196,0.0168,0.0171,0.0156,0.0158,0.0154,0.0156,0.0141,0.0146,0.0148,0.015,0.015,0.0118,0.0117,0.0029,0,0,0,0.0198,0.0192,0.0168,0.0169,0.0154,0.0149,0.0144,0.014,0.0141,0.0148,0.015,0.015,0.0118,0.0117,0.0033,-0.0014,0,0,0,0.0188,0.0193,0.0169,0.0168,0.0139,0.0148,0.0135,0.014,0.0143,0.0149,0.015,0.0119,0.0117,0.0036,-0.0008,-0.0141,0,0,0,0.0211,0.0163,0.0168,0.0121,0.0139,0.0095,0.0135,0.0118,0.0116,0.015,0.0118,0.0117,0.0037,-0.0004,-0.0135,-0.0142,0,0,0,0.017,0.0158,0.0132,0.0136,0.008,0.0106,0.0059,0.0076,0.0109,0.0125,0.0124,0.0032,-0.0007,-0.0139,-0.0209,0,0,0,0,0.0134,0.0102,0.0087,0.0053,0.0036,0.0007,0.0024,0.0034,0.0033,0.0098,0.0033,0.0011,-0.0071,-0.0058,0.0111,0.0111,0.0112,0.0112,0.0112,0.0111,0.0086,0.0026,-0.002,-0.0045,-0.0056,-0.0075,-0.0059,-0.0021,-0.0037,-0.006,-0.0217,-0.0204,-0.0053,-0.0054,-0.0054,-0.0054,-0.0055,-0.0055,0.0051,0.002,-0.0032,-0.0105,-0.0134,-0.0168,-0.0176,-0.0161,-0.0221,-0.0136,-0.0212,-0.0147,-0.0063,-0.0062,-0.006,-0.006,-0.0059,-0.0058,-0.0058,0.0061,0.0033,-0.0036,-0.0142,-0.0208,-0.0238,-0.0329,-0.0321,-0.0316,-0.0372,-0.0422,-0.0307,-0.0306,-0.0446,-0.0447,-0.0447,-0.0448,-0.0449,-0.0449,0.0111,0.003,-0.0068,-0.0178,-0.0241,-0.0328,-0.0432,-0.0518,-0.0549,-0.054,-0.0438,-0.035,-0.0337,-0.0329,-0.0461,-0.0459,-0.0458,-0.0457,-0.0456,0.0108,0.0062,-0.0065,-0.0155,-0.0323,-0.0388,-0.051,-0.0706,-0.0827,-0.0876,-0.0641,-0.0628,-0.0615,-0.0597,-0.0597,-0.0814,-0.0814,-0.0815,0,0.0119,0.0083,-0.0086,-0.0218,-0.0356,-0.0429,-0.0635,-0.0769,-0.0811,-0.0751,-0.0782,-0.0504,-0.0497,-0.0464,-0.045,-0.0442,0,0,0,0.0085,0.0048,-0.0062,-0.0209,-0.0363,-0.0558,-0.0689,-0.0753,-0.0758,-0.0949,-0.0832,-0.0828,-0.066,-0.0498,-0.0449,-0.0433,-0.0419,0,0]},{"header":{"parameterUnit":"m.s-1","parameterCategory":2,"la1":30.2992,"la2":30.254,"lo1":-89.0895,"lo2":-89.0443,"dy":0.0025,"dx":0.0025,"nx":19,"ny":19,"refTime":"2026-04-06T21:00:00:Z","depth":"4","parameterNumber":3,"parameterNumberName":"V-component_of_CURRENTS"},"data":[0,0,0,0.014,0.014,0.0178,0.0179,0.0282,0.0283,0,0,0,0,0,0,0,0,0,0,0,0.0121,0.012,0.014,0.014,0.0178,0.0179,0.0282,0.0283,0,0,0,0,0,0,0,0,0,0,0,0.0121,0.012,0.012,0.014,0.0178,0.0179,0.0282,0.0244,0,0,0,0,0,0,0,0,0,0,0.0202,0.0168,0.0121,0.012,0.014,0.0178,0.0179,0.0242,0.0247,0.0273,0,0.0258,0,0.0267,0.0289,0.0289,0,0,0,0.0161,0.0164,0.0172,0.012,0.014,0.0178,0.0167,0.0244,0.025,0.0279,0.0259,0.0263,0.0269,0.029,0.029,0.0362,0.0362,0,0,0.0159,0.0138,0.0168,0.0175,0.0124,0.0166,0.0168,0.0247,0.0244,0.026,0.0265,0.027,0.029,0.0291,0.0362,0.0362,0,0,0,0.0138,0.0137,0.0142,0.017,0.017,0.0166,0.0169,0.0241,0.0241,0.0267,0.0271,0.0291,0.0292,0.0362,0.0362,0.0323,0,0,0,0.0138,0.0123,0.0141,0.0131,0.0167,0.0198,0.016,0.0235,0.0244,0.0271,0.0291,0.0293,0.0362,0.0362,0.0324,0.0296,0,0,0,0.0124,0.0123,0.0118,0.0129,0.0137,0.0196,0.0202,0.0238,0.0247,0.029,0.0293,0.0362,0.0362,0.0325,0.0298,0.027,0,0,0,0.0116,0.0098,0.0117,0.0109,0.0136,0.0174,0.0202,0.024,0.0274,0.0291,0.0362,0.0362,0.0325,0.0299,0.0272,0.0163,0,0,0,0.0092,0.0094,0.0095,0.0113,0.0132,0.0171,0.0203,0.0255,0.0288,0.0343,0.0344,0.0324,0.0298,0.027,0.0178,0,0,0,0,0.0089,0.008,0.0092,0.0106,0.0145,0.0175,0.0229,0.0252,0.0298,0.0304,0.0339,0.0325,0.0308,0.025,0.0363,0.0363,0.0363,0.0363,0.0363,0.0044,0.007,0.007,0.01,0.0129,0.0187,0.0213,0.0256,0.0294,0.0305,0.0305,0.0273,0.0212,0.0326,0.0325,0.0325,0.0325,0.0325,0.0325,0.0008,0.0007,0.0045,0.0049,0.0099,0.0132,0.0198,0.0223,0.0251,0.0287,0.0273,0.0229,0.0322,0.0322,0.0323,0.0323,0.0323,0.0324,0.0324,-0.0017,-0.002,-0.0016,-0.0007,0.0024,0.0083,0.008,0.0148,0.0204,0.0202,0.014,0.0243,0.0231,0.0195,0.0194,0.0194,0.0194,0.0194,0.0194,-0.0052,-0.005,-0.0087,-0.007,-0.0073,-0.0059,0.0008,0.002,0.0098,0.0077,0.0185,0.0229,0.0233,0.0224,0.019,0.0191,0.0191,0.0191,0.0192,-0.0102,-0.0115,-0.0173,-0.0198,-0.0227,-0.022,-0.0145,-0.0108,-0.0108,-0.0096,0.0012,0.0022,0.0021,0.003,0.0015,-0.0084,-0.0085,-0.0087,0,-0.0148,-0.0154,-0.0274,-0.0348,-0.0399,-0.0334,-0.0361,-0.0307,-0.0201,-0.0218,-0.011,0.0009,0.0017,0.0016,0.0022,0.0001,0,0,0,-0.0201,-0.0231,-0.034,-0.0423,-0.0488,-0.0449,-0.0376,-0.0372,-0.0211,-0.0214,-0.0126,-0.0116,0.0056,0.0179,0.0201,0.0206,0.0193,0,0]}]]